FW1340 Weather Reports


time (UTC)temp
F
wind
direction
speed
knots
gust
knots
rain 1hr
in
rain 24hr
in
rain mn
in
humidity
%
barometer
mb
20260508073010 57 269 0.0 0.0 0.00 0.00 0.00 87 1016.4
20260508071509 57 281 0.0 0.0 0.00 0.00 0.00 86 1016.3
20260508070006 58 287 0.0 0.0 0.00 0.00 0.00 85 1016.2
20260508064525 58 285 0.0 0.0 0.00 0.00 0.00 84 1016.1
20260508063005 59 275 0.0 0.0 0.00 0.00 0.00 84 1015.9
20260508061506 59 276 0.0 0.0 0.00 0.00 0.00 83 1015.8
20260508060004 60 257 0.0 0.0 0.00 0.00 0.00 83 1015.8
20260508054506 60 269 0.0 0.0 0.00 0.00 0.00 82 1015.9
20260508053003 61 271 0.0 0.0 0.00 0.00 0.00 81 1016.0
20260508051505 61 269 0.0 0.0 0.00 0.00 0.00 81 1016.0
20260508050001 62 268 0.0 0.0 0.00 0.00 0.00 80 1016.0
20260508044600 63 259 0.0 0.0 0.00 0.00 0.00 78 1015.9
20260508043001 64 254 0.0 0.0 0.00 0.00 0.00 76 1015.6
20260508041600 65 276 0.0 0.0 0.00 0.00 0.00 75 1015.5
20260508040106 66 268 0.0 0.0 0.00 0.00 0.00 72 1015.5
20260508034559 67 255 0.0 0.0 0.00 0.00 0.00 71 1015.2
20260508033059 68 257 0.0 0.0 0.00 0.00 0.00 68 1015.1
20260508031606 70 273 0.0 0.0 0.00 0.00 0.00 67 1015.0
20260508030105 72 274 0.0 0.0 0.00 0.00 0.00 64 1014.9
20260508024557 74 244 0.0 0.0 0.00 0.00 0.00 68 1014.8
20260508023057 76 274 0.0 0.0 0.00 0.00 0.00 65 1014.6
20260508021604 78 252 0.0 0.0 0.00 0.00 0.00 62 1014.5
20260508020055 80 244 0.0 0.0 0.00 0.00 0.00 59 1014.4
20260508014554 81 261 0.0 0.0 0.00 0.00 0.00 56 1014.4
20260508013056 82 231 0.0 0.0 0.00 0.00 0.00 56 1014.4
20260508011556 83 286 0.0 0.0 0.00 0.00 0.00 54 1014.4
20260508010051 84 306 0.0 0.0 0.00 0.00 0.00 53 1014.5
20260508004551 84 355 0.0 0.0 0.00 0.00 0.00 52 1014.5
20260508003050 84 272 0.0 0.0 0.00 0.00 0.00 52 1014.6
20260508001549 84 327 0.0 0.0 0.00 0.00 0.00 51 1014.6
20260507234548 84 291 0.0 0.0 0.00 0.00 0.00 53 1014.7
20260507233043 83 224 0.0 0.0 0.00 0.00 0.00 51 1014.8
20260507231545 83 244 0.0 0.0 0.00 0.00 0.00 52 1015.0
20260507230038 83 282 0.0 0.0 0.00 0.00 0.00 53 1015.2
20260507224536 83 242 0.0 0.0 0.00 0.00 0.00 54 1015.4
20260507223034 82 254 0.0 0.0 0.00 0.00 0.00 55 1015.6
20260507221531 82 340 0.0 0.0 0.00 0.00 0.00 55 1015.9
20260507220028 82 267 0.0 0.0 0.00 0.00 0.00 55 1016.1
20260507214528 81 335 0.0 0.0 0.00 0.00 0.00 56 1016.4
20260507213020 80 250 0.0 0.0 0.00 0.00 0.00 58 1016.6
20260507211518 80 324 0.0 0.0 0.00 0.00 0.00 58 1016.9
20260507210014 79 343 0.0 0.0 0.00 0.00 0.00 58 1017.0
20260507204511 79 330 0.0 0.0 0.00 0.00 0.00 58 1017.1
20260507203008 78 242 0.0 0.0 0.00 0.00 0.00 60 1017.2
20260507201509 77 271 0.0 0.0 0.00 0.00 0.00 61 1017.4
20260507200107 76 5 0.0 0.0 0.00 0.00 0.00 60 1017.5
20260507194557 76 295 0.0 0.0 0.00 0.00 0.00 62 1017.7
20260507193059 75 338 0.0 0.0 0.00 0.00 0.00 63 1017.9
20260507191552 75 271 0.0 0.0 0.00 0.00 0.00 65 1018.1
20260507190048 74 254 0.0 0.0 0.00 0.00 0.00 66 1018.3
20260507184548 72 250 0.0 0.0 0.00 0.00 0.00 66 1018.4
20260507183041 72 296 0.0 0.0 0.00 0.00 0.00 66 1018.4
20260507181537 72 257 0.0 0.0 0.00 0.00 0.00 68 1018.5
20260507180033 71 328 0.0 0.0 0.00 0.00 0.00 69 1018.6
20260507174544 69 221 0.0 0.0 0.00 0.00 0.00 70 1018.6
20260507173027 68 269 0.0 0.0 0.00 0.00 0.00 72 1018.6
20260507171530 67 251 0.0 0.0 0.00 0.00 0.00 73 1018.7
20260507170018 66 239 0.0 0.0 0.00 0.00 0.00 75 1018.9
20260507164514 65 267 0.0 0.0 0.00 0.00 0.00 78 1018.9
20260507163014 63 251 0.0 0.0 0.00 0.00 0.00 80 1018.9
20260507161505 62 272 0.0 0.0 0.00 0.00 0.00 83 1019.0
20260507160120 61 250 0.0 0.0 0.00 0.00 0.00 85 1019.1
20260507154557 60 268 0.0 0.0 0.00 0.00 0.00 87 1019.1
20260507153052 59 232 0.0 0.0 0.00 0.00 0.00 88 1019.1
20260507151555 58 256 0.0 0.0 0.00 0.00 0.00 89 1019.2
20260507150043 57 261 0.0 0.0 0.00 0.00 0.00 91 1019.2
20260507144543 57 269 0.0 0.0 0.00 0.00 0.00 93 1019.2
20260507143038 56 232 0.0 0.0 0.00 0.00 0.00 94 1019.1
20260507141537 55 260 0.0 0.0 0.00 0.00 0.00 94 1019.1
20260507140038 54 249 0.0 0.0 0.00 0.00 0.00 94 1019.0
20260507134526 53 249 0.0 0.0 0.00 0.00 0.00 93 1019.0
20260507133022 53 241 0.0 0.0 0.00 0.00 0.00 92 1018.7
20260507131533 53 287 0.0 0.0 0.00 0.00 0.00 92 1018.6
20260507130016 53 287 0.0 0.0 0.00 0.00 0.00 91 1018.5
20260507124517 54 287 0.0 0.0 0.00 0.00 0.00 91 1018.5
20260507123010 54 287 0.0 0.0 0.00 0.00 0.00 92 1018.5
20260507121510 55 287 0.0 0.0 0.00 0.00 0.00 92 1018.4
20260507120017 55 287 0.0 0.0 0.00 0.00 0.00 92 1018.3
20260507114507 55 287 0.0 0.0 0.00 0.00 0.00 92 1018.2
20260507113006 55 287 0.0 0.0 0.00 0.00 0.00 92 1018.2
20260507111506 55 286 0.0 0.0 0.00 0.00 0.00 92 1018.4
20260507110005 55 267 0.0 0.0 0.00 0.00 0.00 92 1018.3
20260507104505 55 277 0.0 0.0 0.00 0.00 0.00 92 1018.2
20260507103002 55 302 0.0 0.0 0.00 0.00 0.00 92 1018.3
20260507101502 55 302 0.0 0.0 0.00 0.00 0.00 91 1018.2
20260507094620 56 288 0.0 0.0 0.00 0.00 0.00 91 1018.2
20260507093058 56 333 0.0 0.0 0.00 0.00 0.00 91 1018.3
20260507091557 56 69 0.0 0.0 0.00 0.00 0.00 91 1018.4
20260507090056 56 69 0.0 0.0 0.00 0.00 0.00 91 1018.5
20260507084600 56 69 0.0 0.0 0.00 0.00 0.00 90 1018.6
20260507083053 56 70 0.0 0.0 0.00 0.00 0.00 89 1018.5
20260507081549 57 250 0.0 0.0 0.00 0.00 0.00 89 1018.5
20260507080052 57 250 0.0 0.0 0.00 0.00 0.00 88 1018.3
20260507074547 58 250 0.0 0.0 0.00 0.00 0.00 87 1018.3